Date,TemperatureHighF,TemperatureAvgF,TemperatureLowF,DewpointHighF,DewpointAvgF,DewpointLowF,HumidityHigh,HumidityAvg,HumidityLow,PressureMaxIn,PressureMinIn,WindSpeedMaxMPH,WindSpeedAvgMPH,GustSpeedMaxMPH,PrecipitationSumIn
2013-1-1,34.7,31.2,21.9,29.8,24.6,13.9,84,76,63,30.01,29.84,0,-999,0,0.00
2013-1-2,28.0,23.0,17.6,17.7,14.6,11.2,80,70,59,30.19,30.00,0,-695,0,0.00
2013-1-3,29.2,24.1,18.8,21.0,16.5,14.1,88,73,61,30.20,30.08,0,-684,0,0.02
2013-1-4,33.6,30.0,26.9,24.4,22.5,19.8,84,73,65,30.09,29.97,0,-652,0,0.01
2013-1-5,37.8,31.2,27.4,24.5,22.4,19.3,78,70,57,30.30,30.03,0,-671,0,0.01
2013-1-6,41.1,34.4,29.4,30.6,27.9,23.4,93,77,63,30.22,29.98,0,-708,0,0.02
2013-1-7,39.4,35.2,31.2,30.1,26.9,23.1,82,72,57,30.39,30.06,0,-659,0,0.04
2013-1-8,44.0,35.5,29.0,31.4,27.9,24.5,84,74,59,30.39,30.33,0,-632,0,0.02
2013-1-9,42.5,40.3,38.5,36.7,35.2,32.4,92,82,75,30.26,30.14,0,-606,0,0.01
2013-1-10,42.9,38.6,34.9,32.4,27.7,26.3,76,65,53,30.54,30.25,0,-645,0,0.00
2013-1-11,42.0,37.5,33.6,41.4,32.5,24.7,98,82,66,30.52,30.09,0,-999,0,0.01
2013-1-12,43.0,39.6,35.8,42.7,39.2,35.3,99,99,97,30.17,30.09,0,-760,0,0.00
2013-1-13,46.2,43.7,40.9,45.9,43.4,40.6,100,99,99,30.15,29.99,0,-999,0,0.00
2013-1-14,50.6,45.5,34.0,49.8,42.0,30.0,100,88,66,30.28,29.87,0,-752,0,0.02
2013-1-15,33.2,32.1,30.7,30.6,28.1,25.9,95,85,75,30.34,30.20,0,-999,0,0.00
2013-1-17,37.7,34.3,30.5,30.3,27.9,24.7,92,77,70,30.10,30.00,0,-534,0,0.02
2013-1-18,30.3,24.4,20.5,24.9,14.0,7.3,85,65,47,30.45,30.00,0,-618,0,0.00
2013-1-19,43.7,34.6,23.4,29.7,24.2,12.7,82,66,52,30.38,29.90,0,-608,0,0.03
2013-1-20,46.5,37.0,24.5,32.1,23.7,12.2,76,60,33,30.03,29.71,0,-639,0,0.01
2013-1-21,25.6,23.1,20.4,19.1,13.9,9.4,87,68,56,30.07,29.85,0,-805,0,0.00
2013-1-22,20.5,14.0,8.0,12.2,3.0,-3.5,75,61,48,30.21,29.85,0,-603,0,0.00
2013-1-23,14.1,9.6,5.4,2.3,-0.2,-3.3,76,64,51,30.26,30.18,0,-624,0,0.00
2013-1-24,18.7,12.2,7.1,5.4,2.1,-1.0,79,64,46,30.45,30.13,0,-635,0,0.00
2013-1-25,19.7,12.8,8.1,12.6,5.6,-1.6,92,73,51,30.44,30.08,0,-722,0,0.00
2013-1-26,22.6,16.0,10.9,10.5,8.7,7.6,92,74,55,30.40,30.07,0,-724,0,0.00
2013-1-27,29.8,21.9,14.6,15.8,11.5,8.3,80,65,46,30.55,30.40,0,-619,0,0.00
2013-1-28,33.5,28.3,23.5,33.0,24.3,12.2,98,86,61,30.50,30.02,0,-999,0,0.00
2013-1-29,48.7,41.8,33.5,44.4,40.2,33.0,99,94,82,30.15,30.02,0,-687,0,0.03
2013-1-30,61.2,51.1,42.5,59.0,50.6,42.0,99,98,92,30.03,29.30,0,-999,0,0.01
2013-1-31,58.7,39.1,23.7,58.4,30.7,11.4,100,73,46,29.76,29.03,0,-666,0,0.30
2013-2-1,26.6,22.4,17.3,17.7,13.4,4.5,91,69,41,30.24,29.76,0,-752,0,0.00
2013-2-2,22.3,17.5,12.5,17.9,11.4,6.7,93,77,57,30.29,30.05,0,-647,0,0.00
2013-2-3,27.1,21.0,17.4,21.3,18.2,16.0,95,89,74,30.05,29.81,0,-687,0,0.01
2013-2-4,25.9,21.4,16.5,19.7,12.8,10.4,90,70,55,29.99,29.83,0,-636,0,0.00
2013-2-5,28.1,25.0,22.2,25.4,22.4,17.2,96,90,78,29.97,29.89,0,-999,0,0.00
2013-2-6,34.3,28.4,23.3,26.3,21.3,11.1,97,76,52,30.35,29.92,0,-621,0,0.01
2013-2-7,29.4,24.0,18.0,21.2,13.5,8.9,78,64,53,30.49,30.31,0,-691,0,0.00
2013-2-8,31.7,29.0,27.1,30.2,27.1,21.5,97,93,79,30.31,29.69,0,-999,0,0.00
2013-2-9,28.4,23.3,16.5,27.7,16.6,8.1,97,77,51,30.36,29.77,0,-614,0,0.00
2013-2-10,40.1,25.1,14.0,17.2,12.5,7.2,85,61,26,30.49,30.31,0,-597,0,0.06
2013-2-11,40.5,35.4,28.9,40.2,33.4,17.7,99,93,62,30.31,29.67,0,-797,0,0.04
2013-2-12,39.4,35.5,31.1,37.3,27.5,23.7,99,73,62,29.97,29.74,0,-649,0,0.01
2013-2-13,40.5,33.1,26.6,30.9,25.4,22.1,96,74,58,29.95,29.69,0,-607,0,0.00
2013-2-15,50.6,42.3,32.3,34.3,30.9,26.0,96,65,46,30.00,29.92,0,-429,0,0.02
2013-2-16,32.4,29.0,24.2,31.5,23.8,12.1,97,82,58,29.97,29.77,0,-699,0,0.06
2013-2-17,25.5,21.0,13.8,13.2,7.9,2.9,70,57,45,30.05,29.72,0,-633,0,0.01
2013-2-18,32.0,21.4,11.5,13.9,8.4,2.8,72,58,42,30.29,30.05,0,-626,0,0.00
2013-2-19,38.1,33.0,28.1,37.6,26.4,12.9,98,78,51,30.19,29.70,0,-813,0,0.12
2013-2-20,31.7,25.0,20.4,25.0,15.7,10.8,81,68,57,30.00,29.74,0,-616,0,0.00
2013-2-21,28.9,23.0,18.6,17.9,14.4,11.8,80,69,60,30.32,29.99,0,-622,0,0.00
2013-2-22,33.8,26.2,17.6,29.2,20.7,13.5,92,80,66,30.41,30.26,0,-705,0,0.00
2013-2-23,39.3,35.8,31.5,38.8,35.1,29.4,98,97,92,30.26,29.82,0,-999,0,0.05
2013-2-24,39.3,33.7,29.1,37.9,30.0,22.4,99,87,71,29.99,29.77,0,-740,0,0.00
2013-2-25,38.1,33.3,28.8,30.5,26.9,22.8,85,77,68,30.25,29.99,0,-610,0,0.00
2013-2-26,40.2,34.9,31.7,32.0,29.4,26.1,95,80,70,30.27,29.85,0,-718,0,0.02
2013-2-27,44.3,39.4,32.7,42.5,37.5,31.4,98,93,86,29.85,29.50,0,-896,0,0.04
2013-2-28,43.2,38.1,31.7,36.1,32.7,28.5,94,81,63,29.63,29.55,0,-579,0,0.00
2013-3-1,39.2,34.5,30.8,30.7,28.7,25.2,94,79,70,29.81,29.62,0,-670,0,0.00
2013-3-2,33.2,29.4,26.5,25.3,23.1,20.3,83,77,69,29.81,29.73,0,-591,0,0.00
2013-3-3,31.7,27.0,24.0,21.0,19.0,16.1,80,72,62,29.80,29.71,0,-664,0,0.00
2013-3-4,36.8,29.3,24.0,22.0,19.7,16.1,79,68,52,29.94,29.79,0,-630,0,0.00
2013-3-5,43.2,34.5,27.8,27.2,24.2,21.6,78,67,51,30.03,29.94,0,-566,0,0.00
2013-3-6,36.7,35.1,33.5,34.7,30.0,25.9,93,81,71,29.97,29.84,0,-999,0,0.00
2013-3-7,39.1,33.8,29.5,32.5,27.9,24.8,96,80,63,30.10,29.95,0,-585,0,0.00
2013-3-8,39.5,31.6,26.5,35.7,28.3,24.6,98,88,70,30.24,30.03,0,-748,0,0.00
2013-3-9,53.9,40.4,28.5,27.1,23.0,20.0,77,53,27,30.32,30.21,0,-550,0,0.00
2013-3-10,53.3,42.2,34.0,36.3,29.2,18.6,91,62,40,30.35,30.25,0,-544,0,0.00
2013-3-11,52.6,42.3,33.8,46.9,39.3,31.7,98,90,63,30.29,30.04,0,-753,0,0.00
2013-3-12,55.0,49.1,40.4,54.4,47.5,37.0,98,94,85,30.03,29.66,0,-999,0,0.08
2013-3-13,46.4,38.8,33.7,37.0,30.4,23.9,95,73,45,29.88,29.80,0,-530,0,0.00
2013-3-14,37.6,29.8,24.8,21.0,14.3,8.0,73,54,33,29.97,29.86,0,-223,0,0.01
2013-3-15,42.0,33.5,23.5,31.1,21.6,12.9,73,62,51,29.99,29.73,0,-597,0,0.00
2013-3-16,37.8,30.9,28.8,29.8,25.4,20.1,96,81,64,29.92,29.76,0,-712,0,0.01
2013-3-17,32.1,28.7,23.8,28.0,20.3,14.5,96,72,55,30.31,29.92,0,-579,0,0.00
2013-3-18,31.7,26.7,22.0,29.2,18.8,9.6,96,73,54,30.38,29.97,0,-790,0,0.00
2013-3-19,32.3,31.9,30.4,31.5,31.0,29.4,97,96,96,29.96,29.77,0,-999,0,0.00
2013-3-20,41.6,35.0,27.7,26.2,21.2,18.7,83,58,42,29.88,29.78,0,-389,0,0.00
2013-3-21,33.9,29.0,25.8,26.8,18.0,13.3,90,64,44,29.84,29.64,0,-572,0,0.00
2013-3-23,40.2,33.5,27.8,24.5,21.6,19.0,75,62,44,29.95,29.85,0,-186,0,0.00
2013-3-24,42.0,35.4,28.0,25.2,21.9,19.1,71,58,46,29.95,29.70,0,-563,0,0.00
2013-3-25,36.5,34.2,31.6,33.0,28.6,23.8,95,80,61,29.70,29.47,0,-805,0,0.01
2013-3-26,47.4,38.2,32.8,32.6,29.7,24.8,94,73,43,29.88,29.61,0,-600,0,0.00
2013-3-27,47.6,38.4,32.2,33.8,28.2,21.9,85,68,37,30.01,29.88,0,-514,0,0.00
2013-3-28,44.8,38.7,33.0,31.7,29.8,28.6,84,71,56,30.14,29.97,0,-579,0,0.00
2013-3-29,49.3,41.5,35.2,33.6,29.6,25.6,75,63,44,30.16,30.08,0,-538,0,0.00
2013-3-30,56.4,44.7,34.7,32.0,25.5,16.1,82,51,22,30.18,30.07,0,-550,0,0.00
2013-3-31,55.9,45.6,40.9,41.5,32.6,19.1,97,63,35,30.11,29.68,0,-610,0,0.06
2013-4-1,55.6,43.8,32.0,46.7,34.8,12.9,98,74,35,29.91,29.64,0,-555,0,0.01
2013-4-2,42.0,33.2,26.6,20.7,14.1,11.2,69,46,31,30.10,29.91,0,-502,0,0.00
2013-4-3,42.8,33.5,27.0,17.4,13.3,9.6,60,44,30,30.32,30.09,0,-545,0,0.00
2013-4-4,51.9,38.1,27.0,24.3,19.6,14.5,64,48,30,30.38,30.06,0,-534,0,0.00
2013-4-5,58.3,44.8,34.7,28.6,24.3,18.6,73,47,23,30.06,29.75,0,-518,0,0.00
2013-4-6,51.9,39.6,29.8,22.1,16.1,9.2,64,41,19,30.29,30.00,0,-524,0,0.00
2013-4-7,60.8,48.0,35.8,42.8,33.8,22.9,76,59,39,30.28,29.98,0,-565,0,0.00
2013-4-8,74.4,60.5,48.1,49.8,43.7,38.6,78,57,28,30.08,29.94,0,-530,0,0.00
2013-4-9,80.8,69.4,59.6,52.9,46.1,35.7,73,47,21,29.97,29.86,0,-518,0,0.00
2013-4-10,82.5,66.0,53.3,58.7,53.4,46.0,97,66,43,29.91,29.75,0,-649,0,0.05
2013-4-12,41.2,39.7,38.4,39.9,38.8,37.2,99,96,92,29.89,29.71,0,-999,0,0.01
2013-4-13,55.5,45.8,38.4,39.0,36.7,33.5,99,73,50,29.97,29.76,0,-488,0,0.00
2013-4-14,54.5,48.0,42.8,35.3,31.5,27.2,73,54,38,30.19,29.96,0,-536,0,0.00
2013-4-15,59.3,48.3,40.4,40.0,33.0,27.1,73,56,46,30.34,30.19,0,-584,0,0.00
2013-4-16,66.8,55.9,44.7,56.3,49.0,38.1,90,78,67,30.33,30.09,0,-516,0,0.00
2013-4-17,67.9,58.6,49.2,56.3,40.3,30.8,94,55,26,30.26,30.10,0,-567,0,0.02
2013-4-18,55.1,51.6,48.7,53.2,44.1,37.8,98,76,55,30.28,30.05,0,-546,0,0.01
2013-4-19,73.5,62.5,52.1,64.6,59.5,50.4,99,91,72,30.05,29.58,0,-668,0,0.05
2013-4-20,55.5,47.7,39.8,49.3,34.8,22.7,96,63,35,30.30,29.67,0,-516,0,0.01
2013-4-21,51.3,41.3,31.5,25.6,22.4,19.1,69,48,32,30.61,30.30,0,-505,0,0.00
2013-4-22,51.9,43.4,35.6,36.6,30.4,23.8,79,60,48,30.63,30.46,0,-508,0,0.00
2013-4-23,46.0,41.3,36.4,40.1,35.9,31.1,87,81,73,30.46,30.14,0,-542,0,0.00
2013-4-24,70.4,54.9,40.0,55.1,46.6,37.2,90,75,53,30.14,29.79,0,-518,0,0.00
2013-4-25,62.6,51.0,40.0,54.9,31.6,21.3,90,51,22,30.25,29.84,0,-508,0,0.02
2013-4-26,61.7,52.2,43.7,36.9,29.6,21.8,68,44,22,30.40,30.25,0,-497,0,0.00
2013-4-27,68.6,54.2,41.1,36.5,32.2,29.2,65,45,26,30.42,30.26,0,-497,0,0.00
2013-4-28,68.9,58.3,49.0,43.5,37.3,32.2,62,46,33,30.28,30.15,0,-535,0,0.00
2013-4-29,53.5,50.2,49.1,49.5,47.0,38.2,98,89,56,30.20,30.13,0,-999,0,0.09
2013-4-30,65.8,54.0,47.6,50.7,41.1,23.2,100,68,28,30.31,30.17,0,-608,0,0.00
2013-5-1,67.8,55.5,46.6,44.3,31.7,21.7,73,42,21,30.46,30.31,0,-491,0,0.00
2013-5-2,73.3,59.2,45.5,46.0,42.0,38.5,85,56,33,30.44,30.30,0,-494,0,0.00
2013-5-3,65.2,55.9,45.8,41.7,37.4,30.0,84,52,27,30.42,30.31,0,-511,0,0.00
2013-5-4,69.6,54.2,43.9,45.4,41.6,38.0,90,66,33,30.34,30.19,0,-508,0,0.00
2013-5-5,66.2,50.7,39.6,44.1,39.8,33.0,95,70,32,30.27,30.18,0,-516,0,0.00
2013-5-6,69.0,54.4,42.4,54.1,47.3,39.4,92,78,54,30.24,30.13,0,-535,0,0.00
2013-5-7,72.7,60.4,49.0,57.5,52.1,45.7,95,76,52,30.15,30.05,0,-500,0,0.00
2013-5-8,67.7,59.4,54.3,62.6,57.5,53.3,98,94,75,30.08,29.92,0,-744,0,0.06
2013-5-9,66.3,57.4,52.2,58.9,54.5,51.7,98,91,71,29.97,29.89,0,-707,0,0.00
2013-5-10,77.3,66.0,54.8,60.3,56.6,53.4,98,74,44,30.00,29.88,0,-473,0,0.02
2013-5-11,67.8,62.3,57.3,64.5,60.8,56.5,98,95,85,29.89,29.68,0,-763,0,0.00
2013-5-12,62.4,55.1,44.9,56.3,41.8,29.0,97,64,34,29.92,29.66,0,-494,0,0.02
2013-5-13,51.9,44.5,39.5,33.7,30.7,26.8,78,59,41,30.12,29.93,0,-494,0,0.00
2013-5-14,59.8,47.4,37.0,34.2,28.5,21.3,82,52,24,30.15,30.03,0,-491,0,0.00
2013-5-15,71.5,57.2,47.9,57.9,44.4,28.9,80,63,47,30.06,29.67,0,-480,0,0.00
2013-5-19,58.2,57.4,56.6,56.1,55.6,55.1,95,94,92,30.18,30.17,0,0,0,0.10
2013-5-21,86.0,75.5,65.0,72.8,68.8,64.4,99,81,59,29.95,29.82,0,-444,0,0.00
2013-5-22,83.1,73.1,66.8,73.7,68.8,65.8,98,87,70,29.88,29.78,0,-700,0,0.00
2013-5-23,74.5,67.7,61.1,70.0,66.0,60.4,99,94,82,29.85,29.72,0,-877,0,0.06
2013-5-24,60.9,50.2,40.7,60.3,49.2,39.8,100,96,86,29.97,29.67,0,-878,0,0.00
2013-5-25,53.1,46.2,40.2,42.1,39.4,35.4,100,79,54,30.03,29.93,0,-596,0,0.01
2013-5-26,62.2,52.7,42.9,41.2,37.0,32.3,85,58,35,30.21,30.00,0,-476,0,0.01
2013-5-27,73.0,59.2,45.9,45.7,38.7,31.3,65,48,30,30.25,30.13,0,-500,0,0.00
2013-5-28,59.5,56.2,53.9,55.4,50.4,40.8,99,83,51,30.20,30.10,0,-738,0,0.00
2013-5-29,82.5,67.9,55.7,71.1,63.1,55.4,99,86,63,30.11,30.00,0,-573,0,0.00
2013-5-30,88.8,78.1,68.2,70.8,65.5,60.5,90,67,42,30.12,30.05,0,-500,0,0.00
2013-5-31,88.0,79.1,71.7,73.5,66.0,57.4,84,66,44,30.10,29.97,0,-491,0,0.00
2013-6-1,87.3,77.9,68.3,72.7,68.2,64.2,92,73,56,29.99,29.87,0,-477,0,0.00
2013-6-2,83.5,75.4,70.1,71.9,68.6,66.3,93,80,61,29.88,29.74,0,-570,0,0.00
2013-6-3,76.9,68.0,60.4,68.4,63.3,49.6,100,86,68,29.89,29.77,0,-511,0,0.00
2013-6-4,71.2,61.0,51.4,51.0,45.8,39.1,81,59,40,30.11,29.89,0,-472,0,0.00
2013-6-5,73.2,61.6,50.3,53.3,46.5,38.8,72,58,44,30.20,30.08,0,-497,0,0.01
2013-6-6,66.0,59.3,53.8,58.4,54.2,46.8,97,84,65,30.12,29.96,0,-559,0,0.01
2013-6-7,61.2,58.9,56.9,60.6,58.4,56.1,99,98,97,29.96,29.63,0,-999,0,0.00
2013-6-8,73.3,63.8,55.2,64.9,60.6,54.8,100,90,73,30.05,29.62,0,-497,0,0.00
2013-6-9,78.8,68.1,57.6,64.2,59.4,55.9,95,75,53,30.16,30.05,0,-477,0,0.00
2013-6-10,68.3,64.9,62.3,67.1,62.4,59.6,99,92,74,30.14,29.77,0,-999,0,0.00
2013-6-11,74.9,68.9,65.4,68.0,65.5,60.6,99,89,75,29.77,29.63,0,-491,0,0.00
2013-6-12,73.7,66.8,59.5,61.6,57.4,53.7,89,73,54,29.84,29.71,0,-458,0,0.00
2013-6-13,64.3,58.8,53.6,61.3,57.4,53.3,99,95,87,29.70,29.42,0,-648,0,0.00
2013-6-14,70.0,57.7,50.3,62.4,54.7,49.7,99,91,67,29.92,29.54,0,-740,0,0.00
2013-6-15,77.7,66.8,58.1,62.2,56.7,53.3,91,71,48,30.02,29.92,0,-505,0,0.00
2013-6-16,75.9,68.8,62.5,65.9,58.0,48.1,88,69,53,29.99,29.77,0,-511,0,0.00
2013-6-17,82.5,72.5,65.0,71.5,63.5,57.0,93,75,46,29.90,29.82,0,-500,0,0.00
2013-6-18,80.0,68.2,57.5,70.3,63.4,56.9,98,85,61,29.89,29.77,0,-609,0,0.00
2013-6-19,75.1,63.4,54.3,56.9,52.8,46.3,98,72,42,30.15,29.87,0,-491,0,0.00
2013-6-20,78.2,67.0,56.9,63.1,55.1,47.8,82,66,49,30.25,30.15,0,-500,0,0.00
2013-6-21,80.5,70.0,58.5,64.4,57.6,50.8,81,66,51,30.28,30.21,0,-483,0,0.00
2013-6-22,81.5,71.0,60.2,68.4,61.9,50.5,84,73,58,30.24,30.10,0,-497,0,0.00
2013-6-23,85.6,74.6,65.1,72.9,67.9,62.9,94,81,62,30.17,30.03,0,-491,0,0.00
2013-6-24,88.6,76.5,70.3,75.3,69.1,62.5,96,79,53,30.06,29.94,0,-583,0,0.00
2013-6-25,86.3,75.5,68.7,74.5,69.2,65.3,96,81,61,30.00,29.80,0,-481,0,0.00
2013-6-26,81.3,72.9,65.8,71.8,67.8,64.1,97,85,68,29.84,29.78,0,-478,0,0.00
2013-6-27,85.2,74.5,68.2,74.3,69.2,65.7,98,84,64,29.81,29.49,0,-576,0,0.01
2013-6-28,82.1,73.3,66.2,71.6,68.8,64.2,98,87,68,29.52,29.44,0,-553,0,0.01
2013-6-29,81.0,72.1,64.4,70.6,65.7,63.1,98,82,59,29.68,29.46,0,-489,0,0.00
2013-6-30,80.9,74.2,68.9,75.1,69.5,63.4,94,85,74,29.88,29.68,0,-508,0,0.00
2013-7-1,74.7,71.7,67.9,73.2,70.6,67.3,99,96,92,30.00,29.85,0,-578,0,0.00
2013-7-2,81.9,74.6,71.0,75.4,72.0,69.7,99,92,78,30.15,30.00,0,-592,0,0.00
2013-7-3,81.8,74.8,69.9,75.6,71.7,68.7,96,90,80,30.22,30.13,0,-564,0,0.00
2013-7-4,85.9,77.5,71.8,76.0,72.9,71.0,98,86,70,30.23,30.13,0,-518,0,0.00
2013-7-5,88.7,79.7,71.5,77.6,73.0,70.2,98,81,61,30.19,30.07,0,-480,0,0.00
2013-7-6,88.5,79.3,72.4,77.1,73.2,71.1,96,83,62,30.13,30.02,0,-528,0,0.00
2013-7-7,89.2,79.0,69.0,77.9,72.9,67.3,95,83,65,30.05,29.92,0,-532,0,0.00
2013-7-8,84.2,73.7,66.2,73.9,68.6,65.3,98,85,62,30.04,29.96,0,-531,0,0.00
2013-7-9,85.0,74.1,67.9,75.3,69.1,64.9,97,85,64,30.06,29.97,0,-553,0,0.00
2013-7-10,82.4,75.7,70.9,76.0,72.2,69.7,98,89,73,30.00,29.80,0,-548,0,0.00
2013-7-11,80.0,74.3,69.5,71.8,67.5,61.0,92,79,72,29.92,29.83,0,-444,0,0.00
2013-7-12,75.0,69.1,65.1,69.4,65.0,60.9,98,87,74,30.07,29.91,0,-658,0,0.00
2013-7-13,78.2,70.1,65.0,75.2,69.2,64.4,99,97,90,30.27,30.07,0,-733,0,0.00
2013-7-14,87.2,78.6,72.3,77.8,73.4,71.1,99,85,63,30.33,30.23,0,-497,0,0.00
2013-7-15,88.7,79.8,72.5,77.8,73.2,70.7,96,81,65,30.24,30.13,0,-488,0,0.00
2013-7-16,86.5,79.2,70.0,74.1,70.1,67.3,91,75,56,30.21,30.13,0,-513,0,0.00
2013-7-17,92.2,81.4,73.0,75.9,71.2,67.3,86,72,49,30.19,30.05,0,-488,0,0.00
2013-7-18,93.6,82.5,75.5,77.2,73.1,70.1,88,74,51,30.06,29.95,0,-468,0,0.00
2013-7-19,91.8,85.8,77.1,79.3,76.3,72.2,85,74,62,29.94,29.77,0,-316,0,0.00
2013-7-20,87.9,79.1,73.5,77.4,71.7,66.7,89,78,59,29.83,29.72,0,-535,0,0.00
2013-7-21,84.9,76.0,70.1,73.0,69.0,65.8,93,80,59,29.94,29.82,0,-511,0,0.00
2013-7-22,81.2,73.2,69.0,75.8,69.9,64.7,98,89,77,29.94,29.77,0,-690,0,0.00
2013-7-23,83.2,73.0,69.8,75.3,71.3,69.2,100,95,73,29.77,29.59,0,-571,0,0.00
2013-7-24,63.9,61.3,59.2,56.1,54.5,53.2,81,78,75,29.93,29.88,0,-999,0,0.00
2013-7-25,68.7,60.6,55.8,61.8,55.7,50.6,93,84,77,30.05,29.92,0,-516,0,0.00
2013-7-26,80.5,68.5,58.7,65.3,60.2,57.0,98,76,52,30.05,29.99,0,-481,0,0.00
2013-7-27,81.2,71.2,63.3,68.0,62.7,56.7,88,75,61,30.03,29.92,0,-545,0,0.00
2013-7-28,75.1,68.1,64.3,71.6,65.9,60.8,98,93,80,29.97,29.88,0,-798,0,0.00
2013-7-29,78.2,68.5,61.4,67.6,61.4,54.7,98,80,52,30.10,29.94,0,-555,0,0.00
2013-7-30,75.1,66.9,59.3,63.3,58.1,54.2,85,74,59,30.17,30.10,0,-549,0,0.00
2013-7-31,78.6,69.6,61.3,65.3,61.0,56.2,89,75,56,30.15,30.01,0,-505,0,0.00
2013-8-1,67.0,65.8,63.7,66.1,64.4,62.9,99,95,89,30.01,29.82,0,-999,0,0.00
2013-8-2,78.4,69.4,60.8,68.4,63.3,57.9,99,82,60,29.92,29.80,0,-553,0,0.00
2013-8-3,74.3,67.0,62.3,68.5,62.0,56.2,97,85,67,29.91,29.83,0,-754,0,0.00
2013-8-4,72.6,65.5,60.2,64.0,58.2,52.0,97,78,60,29.99,29.86,0,-518,0,0.00
2013-8-5,74.3,63.9,55.8,57.2,52.9,50.7,89,69,50,30.07,29.98,0,-545,0,0.00
2013-8-6,78.5,67.6,59.0,63.7,57.6,50.8,92,72,50,30.10,30.03,0,-551,0,0.00
2013-8-7,74.1,67.4,63.3,68.9,65.1,61.0,97,93,81,30.11,30.02,0,-717,0,0.00
2013-8-8,80.5,71.9,67.1,76.1,70.3,66.5,99,95,81,30.03,29.96,0,-740,0,0.00
2013-8-9,83.2,73.6,70.4,76.4,72.3,69.8,99,96,75,29.98,29.79,0,-780,0,0.00
2013-8-10,73.5,68.1,64.7,69.8,65.8,62.1,98,93,77,29.99,29.87,0,-646,0,0.00
2013-8-12,80.4,74.3,68.4,67.4,64.2,61.2,89,71,58,30.01,29.91,0,-306,0,0.00
2013-8-13,78.5,70.0,63.8,71.3,67.2,62.3,98,91,74,29.91,29.68,0,-655,0,0.00
2013-8-14,67.4,60.9,53.6,62.0,53.2,48.6,94,76,64,30.03,29.76,0,-541,0,0.00
2013-8-17,78.5,70.2,60.3,64.9,60.6,56.7,89,72,52,30.27,30.22,0,-330,0,0.00
2013-8-18,69.9,66.6,63.5,65.9,61.7,56.4,95,84,76,30.25,30.13,0,-532,0,0.00
2013-8-19,74.0,66.9,60.6,66.0,62.7,58.9,96,87,66,30.13,30.03,0,-554,0,0.00
2013-8-20,83.0,72.1,63.4,70.1,65.5,61.4,98,81,58,30.13,30.05,0,-516,0,0.00
2013-8-21,83.6,75.0,67.2,68.3,64.5,60.1,85,71,52,30.17,30.04,0,-534,0,0.00
2013-8-22,80.0,71.8,68.3,74.2,69.3,66.1,98,92,80,30.05,29.87,0,-956,0,0.00
2013-8-23,73.7,68.4,63.5,66.6,62.2,57.1,95,82,58,30.10,29.89,0,-645,0,0.00
2013-8-24,74.7,64.9,55.8,60.8,54.6,50.1,91,71,49,30.34,30.10,0,-542,0,0.00
2013-8-25,78.1,67.5,59.7,63.0,57.3,54.0,86,71,51,30.39,30.23,0,-551,0,0.00
2013-8-26,79.4,68.8,62.0,70.4,62.7,55.9,96,81,70,30.23,29.91,0,-594,0,0.00
2013-8-27,80.0,71.6,67.1,71.2,67.4,65.4,97,87,72,29.91,29.83,0,-688,0,0.00
2013-8-28,75.3,71.3,68.9,72.2,69.0,67.0,99,93,78,29.88,29.83,0,-867,0,0.00
2013-8-29,79.5,69.9,66.4,72.6,68.2,65.2,100,95,75,30.01,29.88,0,-709,0,0.00
2013-8-30,79.9,71.5,65.4,72.7,68.3,64.2,97,90,76,30.01,29.84,0,-629,0,0.00
2013-8-31,81.9,74.3,69.3,75.2,71.5,68.4,98,91,80,29.85,29.77,0,-646,0,0.00
2013-9-1,81.3,75.2,69.9,75.3,72.2,69.0,97,91,77,29.83,29.76,0,-563,0,0.00
2013-9-2,77.0,71.2,69.3,72.6,70.2,68.7,99,97,82,29.78,29.69,0,-694,0,0.00
2013-9-3,76.3,68.3,63.4,69.7,63.3,58.7,99,85,58,29.89,29.71,0,-624,0,0.00
2013-9-4,78.0,66.8,57.5,65.0,59.4,55.8,95,78,52,30.00,29.88,0,-558,0,0.00
2013-9-5,70.1,64.2,55.7,61.7,54.2,46.4,87,71,44,30.15,29.93,0,-568,0,0.00
2013-9-6,68.5,56.9,48.1,49.0,45.1,40.9,89,67,39,30.26,30.13,0,-559,0,0.00
2013-9-7,75.5,63.3,52.5,57.5,50.1,42.4,74,63,43,30.13,29.90,0,-569,0,0.00
2013-9-8,73.4,65.1,55.5,65.0,55.6,45.6,88,72,49,30.07,29.82,0,-539,0,0.00
2013-9-9,70.7,60.1,50.1,60.1,52.4,44.7,89,76,59,30.23,30.08,0,-594,0,0.00
2013-9-10,83.3,72.0,63.3,75.1,68.5,60.0,98,89,75,30.15,30.05,0,-639,0,0.00
2013-9-11,90.4,79.4,71.8,80.1,74.2,70.7,97,85,67,30.11,29.97,0,-578,0,0.00
2013-9-12,76.6,73.4,71.8,73.4,70.9,70.2,95,92,88,29.96,29.85,0,-865,0,0.00
2013-9-18,69.3,60.4,48.5,52.1,47.4,44.3,86,63,44,30.34,30.19,0,-366,0,0.00
2013-9-19,73.3,60.9,51.3,55.0,49.7,44.2,79,68,48,30.19,30.06,0,-593,0,0.00
2013-9-20,77.6,65.2,56.9,63.4,57.5,52.9,93,78,51,30.08,29.96,0,-572,0,0.00
2013-9-21,73.7,63.4,54.5,64.1,58.4,53.3,98,85,55,29.98,29.65,0,-611,0,0.00
2013-9-22,60.7,56.1,49.9,58.4,50.2,41.3,98,81,61,29.92,29.65,0,-616,0,0.00
2013-9-23,58.5,51.1,45.7,46.6,43.1,40.5,84,75,61,30.05,29.91,0,-597,0,0.00
2013-9-24,67.4,53.7,41.0,49.7,44.6,39.0,94,74,47,30.06,29.92,0,-576,0,0.00
2013-9-25,67.9,56.5,46.4,52.7,47.1,43.0,89,72,49,29.97,29.88,0,-579,0,0.00
2013-9-26,67.7,58.4,49.9,58.6,53.5,48.5,96,84,65,30.10,29.94,0,-563,0,0.00
2013-9-27,64.4,56.1,48.0,54.8,51.4,46.7,97,85,67,30.27,30.10,0,-622,0,0.00
2013-9-28,70.6,59.1,51.0,55.3,52.1,49.8,97,79,50,30.33,30.23,0,-582,0,0.00
2013-9-29,69.6,59.2,54.0,57.2,53.0,50.2,91,80,59,30.23,30.07,0,-614,0,0.00
2013-9-30,71.7,59.7,52.7,56.4,51.7,47.4,93,76,49,30.08,29.98,0,-610,0,0.00
2013-10-1,75.3,64.2,55.7,64.3,56.2,51.4,88,76,63,30.02,29.91,0,-600,0,0.00
2013-10-2,80.0,68.1,58.5,65.3,59.5,53.7,87,75,58,30.02,29.93,0,-602,0,0.00
2013-10-3,76.3,67.0,59.6,61.9,58.3,53.5,86,74,51,30.11,30.01,0,-626,0,0.00
2013-10-4,82.9,70.8,63.7,69.5,64.5,61.5,95,81,61,30.05,29.97,0,-647,0,0.00
2013-10-5,80.9,68.4,60.9,69.5,64.3,60.3,98,88,62,30.08,30.00,0,-631,0,0.00
2013-10-6,66.5,64.5,62.5,65.6,63.9,61.9,99,98,94,30.06,29.98,0,-999,0,0.00
2013-10-7,71.5,63.0,53.4,69.2,61.7,46.7,99,96,78,29.98,29.70,0,-999,0,0.00
2013-10-8,61.4,54.2,48.1,48.8,46.2,44.0,89,75,57,30.33,29.98,0,-618,0,0.00
2013-10-9,57.1,50.8,42.7,47.3,44.6,41.3,95,80,64,30.39,30.30,0,-637,0,0.00
2013-10-10,53.7,51.1,46.8,50.2,47.9,44.8,94,89,82,30.24,30.08,0,-999,0,0.00
2013-10-11,61.5,57.0,51.9,58.7,53.5,48.3,93,88,84,30.09,30.02,0,-792,0,0.00
2013-10-12,70.4,60.1,52.7,56.5,49.4,35.4,93,70,29,30.25,30.07,0,-650,0,0.00
2013-10-13,63.2,56.0,50.4,52.7,50.5,48.4,93,82,65,30.37,30.25,0,-645,0,0.00
2013-10-14,66.7,54.9,47.3,52.7,48.7,45.1,98,82,47,30.35,30.24,0,-650,0,0.00
2013-10-15,71.3,57.8,50.0,57.6,49.2,37.5,93,75,46,30.25,30.10,0,-670,0,0.00
2013-10-16,63.5,56.6,50.7,57.7,53.5,46.6,97,90,77,30.10,29.90,0,-753,0,0.00
2013-10-17,73.9,63.1,58.5,61.9,59.6,57.3,99,89,62,29.91,29.66,0,-720,0,0.00
2013-10-18,62.7,55.7,49.2,61.8,46.9,41.2,97,73,55,29.98,29.66,0,-594,0,0.00
2013-10-19,61.7,53.4,48.3,50.7,44.0,40.1,97,71,50,29.98,29.74,0,-734,0,0.00
2013-10-20,58.5,49.8,42.6,50.3,40.3,34.3,97,72,42,30.06,29.76,0,-701,0,0.00
2013-10-21,64.8,53.0,44.7,44.3,39.1,37.1,80,61,39,30.14,29.96,0,-686,0,0.00
2013-10-22,59.1,51.8,45.7,50.6,44.2,33.1,95,76,50,29.96,29.75,0,-686,0,0.00
2013-10-23,51.0,43.9,39.3,40.3,34.7,30.8,87,70,54,29.82,29.63,0,-734,0,0.00
2013-10-24,50.6,40.5,34.3,36.3,31.7,27.0,92,72,46,30.02,29.78,0,-711,0,0.00
2013-10-25,48.2,40.3,33.6,35.9,31.9,29.2,92,73,51,30.23,30.02,0,-724,0,0.00
2013-10-26,52.1,42.4,33.7,34.5,31.6,29.5,92,67,44,30.23,29.89,0,-642,0,0.00
2013-10-27,53.7,45.6,40.9,36.4,32.7,31.2,74,61,47,30.13,29.86,0,-650,0,0.00
2013-10-28,58.9,46.6,37.2,37.9,33.7,30.4,78,62,42,30.31,30.12,0,-654,0,0.00
2013-10-29,52.0,44.4,37.2,35.8,32.5,29.0,80,64,47,30.41,30.31,0,-673,0,0.00
2013-10-30,54.4,47.8,39.8,49.3,42.7,30.1,97,83,64,30.35,30.18,0,-999,0,0.00
2013-10-31,61.6,55.5,49.6,58.8,54.1,48.8,100,95,86,30.22,29.76,0,-938,0,0.00
2013-11-1,66.5,61.5,56.8,62.7,54.9,43.7,97,80,60,29.76,29.50,0,-779,0,0.00
2013-11-2,65.5,55.1,47.4,48.5,43.2,39.5,76,64,49,29.78,29.62,0,-688,0,0.00
2013-11-3,47.8,40.4,30.6,41.7,30.9,19.9,86,69,47,30.45,29.78,0,-790,0,0.00
2013-11-4,41.5,33.5,26.5,22.9,19.8,16.3,76,58,36,30.66,30.45,0,-666,0,0.00
2013-11-5,50.8,43.0,31.6,41.8,34.7,21.2,86,73,58,30.66,30.47,0,-701,0,0.00
2013-11-6,57.8,51.5,45.3,49.5,45.6,41.4,92,81,68,30.49,30.05,0,-751,0,0.00
2013-11-7,55.9,49.3,38.4,54.6,46.1,32.5,97,89,72,30.05,29.77,0,-999,0,0.00
2013-11-8,43.7,38.4,33.4,34.3,29.6,25.4,93,71,55,30.23,29.93,0,-609,0,0.01
2013-11-9,47.2,39.2,31.9,33.9,29.1,26.6,83,68,47,30.29,29.98,0,-636,0,0.01
2013-11-10,54.4,44.4,38.5,37.6,32.7,28.5,80,64,49,30.06,29.84,0,-756,0,0.01
2013-11-11,48.7,43.0,35.7,34.8,30.4,25.8,68,61,54,30.21,29.96,0,-795,0,0.00
2013-11-12,46.0,32.4,25.5,34.8,23.9,17.6,94,71,60,30.30,29.92,0,-999,0,0.00
2013-11-13,33.6,27.9,23.3,20.9,16.9,12.8,77,64,46,30.39,30.30,0,-622,0,0.00
2013-11-20,40.8,34.7,29.3,20.0,12.9,9.4,59,41,30,30.62,30.54,0,-581,0,0.06
2013-11-21,46.9,38.4,25.9,39.8,28.6,11.5,84,68,47,30.61,30.39,0,-662,0,0.08
2013-11-22,51.9,47.7,44.4,48.2,45.3,39.9,97,91,84,30.39,29.93,0,-805,0,0.03
2013-11-23,48.7,36.6,26.9,46.1,26.4,11.9,91,67,46,30.07,29.91,0,-610,0,0.01
2013-11-24,23.3,20.2,17.6,9.5,5.9,3.4,65,54,45,30.40,30.06,0,-578,0,0.00
2013-11-25,31.4,23.8,16.0,17.3,12.5,7.1,80,62,53,30.49,30.32,0,-688,0,0.00
2013-11-26,40.6,31.2,27.9,40.1,24.4,14.9,98,77,57,30.33,29.73,0,-999,0,0.00
2013-11-27,57.2,39.0,28.2,56.8,37.2,20.1,99,93,71,29.76,29.39,0,-999,0,0.00
2013-11-28,29.1,26.3,23.7,21.3,15.4,11.9,77,64,51,30.46,29.76,0,-653,0,0.00
2013-11-29,32.3,27.2,22.6,23.5,19.0,14.1,77,71,60,30.74,30.46,0,-690,0,0.00
2013-11-30,32.6,25.9,18.2,28.8,18.8,11.1,88,75,57,30.74,30.39,0,-672,0,0.00
2013-12-1,46.5,35.5,29.4,34.4,29.2,26.6,91,78,61,30.39,30.00,0,-715,0,0.06
2013-12-2,44.0,38.4,34.1,33.3,30.4,27.6,80,73,62,30.01,29.88,0,-999,0,0.00
2013-12-3,50.0,40.6,35.0,36.0,34.1,31.1,91,78,54,30.00,29.88,0,-774,0,0.04
2013-12-4,49.1,42.3,35.8,44.1,37.8,33.6,92,84,70,30.11,30.00,0,-701,0,0.00
2013-12-5,54.8,50.0,46.0,54.5,49.4,43.7,99,98,90,30.10,29.92,0,-999,0,0.00
2013-12-6,57.1,42.1,33.0,56.8,41.2,32.5,99,97,88,30.15,29.86,0,-999,0,0.00
2013-12-7,33.0,30.6,25.2,32.5,26.0,17.0,98,83,69,30.52,30.07,0,-722,0,0.00
2013-12-8,27.5,24.3,21.9,25.5,19.3,15.5,96,81,68,30.59,30.37,0,-999,0,0.00
2013-12-9,32.6,31.0,26.5,32.1,30.3,25.5,98,97,96,30.37,29.99,0,-999,0,0.00
2013-12-10,30.9,27.8,21.3,30.4,26.3,16.6,98,94,80,30.12,29.89,0,-999,0,0.00
2013-12-11,29.1,22.9,19.1,19.8,16.9,14.4,83,78,65,30.32,30.12,0,-649,0,0.00
2013-12-12,24.7,19.3,16.2,17.2,10.3,5.6,86,68,54,30.36,30.19,0,-631,0,0.00
2013-12-13,29.7,27.8,26.8,18.5,17.2,16.6,67,64,61,30.33,30.18,0,-893,0,0.00
2013-12-14,27.8,21.3,17.8,23.4,18.5,16.1,95,89,63,30.46,29.80,0,-999,0,0.00
2013-12-15,33.1,26.6,17.1,31.5,24.2,15.4,98,91,82,29.84,29.57,0,-729,0,0.00
2013-12-16,27.6,21.6,17.7,23.0,12.3,8.7,83,67,55,30.21,29.83,0,-658,0,0.00
2013-12-17,20.6,17.5,15.1,17.4,13.8,9.3,94,86,63,30.21,29.95,0,-999,0,0.00
2013-12-18,32.8,24.2,16.2,24.4,19.5,14.5,94,83,69,30.19,29.94,4,-677,6,0.02
2013-12-19,41.9,32.7,24.3,28.8,23.9,19.0,83,70,59,30.18,30.05,0,-706,0,0.00
2013-12-20,46.9,43.6,40.4,35.6,31.1,27.9,69,61,56,30.11,29.96,0,-692,0,0.00
2013-12-21,56.1,50.1,44.1,53.3,44.0,35.7,91,80,69,30.00,29.88,0,-722,0,0.01
2013-12-22,63.1,59.7,55.7,61.0,57.6,53.3,97,93,85,29.93,29.76,0,-999,0,0.03
2013-12-23,57.1,49.9,34.2,55.8,48.4,27.4,98,94,75,30.14,29.88,0,-999,0,0.00
2013-12-24,34.1,29.2,20.0,27.8,21.7,11.1,93,73,66,30.35,30.10,0,-696,0,0.00
2013-12-25,24.3,19.1,13.1,15.1,10.2,7.0,78,68,54,30.52,30.35,0,-668,0,0.00
2013-12-26,29.7,25.7,21.6,27.4,21.7,15.2,93,85,74,30.42,30.18,0,-795,0,0.00
2013-12-27,36.4,29.9,23.7,25.0,22.2,18.5,82,73,61,30.36,30.27,0,-674,0,0.00
2013-12-28,48.2,39.3,30.3,29.4,26.1,21.7,76,60,46,30.29,30.07,0,-653,0,0.00
2013-12-29,45.5,40.4,36.5,38.9,32.7,26.3,98,77,47,30.07,29.47,0,-999,0,0.00
2013-12-30,40.1,31.2,17.2,36.6,26.0,11.0,94,81,64,30.17,29.70,0,-999,0,0.00
2013-12-31,27.2,20.5,13.8,23.7,13.7,9.0,91,75,60,30.29,30.06,0,-717,0,0.00
2014-1-1,28.5,23.4,17.7,21.2,16.4,9.1,83,74,66,30.41,30.23,0,-724,0,0.00
2014-1-2,26.0,18.7,9.1,21.1,15.8,6.8,93,88,78,30.23,29.69,0,-999,0,0.00